Location: Eastchurch
(51.4000°N, 0.8667°E)
Time: 22:03:01
(UTC+00:00)

Cosmos 1331 Rocket - Pass Details

Date: 19 January 2026
Orbit: 745 x 773 km, 74.0° (Epoch: 7 February)

Event Time Altitude Azimuth Distance (km) Brightness Sun altitude
Rises 17:34:11 0° 204° (SSW) 3,176 7.9 -10.7°
Reaches altitude 10° 17:36:31 10° 205° (SSW) 2,257 7.1 -11.0°
Maximum altitude 17:41:39 85° 295° (WNW) 758 4.0 -11.8°
Drops below altitude 10° 17:46:50 10° 24° (NNE) 2,282 6.1 -12.6°
Enters shadow 17:47:53 - 25° (NNE) 2,691 6.4 -12.7°
